Location: Basse Occidentale du Courleau
(48.3833°N, 4.8333°W)
Time: 19:22:08
(UTC+00:00)

Cosmos 1076 Rocket - Pass Details

Date: 05 July 2020
Orbit: 589 x 613 km, 82.5° (Epoch: 05 August)

Event Time Altitude Azimuth Distance (km) Brightness Sun altitude
Exits shadow 23:12:53 26° 204° (SSW) 1,185 4.6 -17.2°
Maximum altitude 23:15:12 68° 281° (W) 648 3.7 -17.3°
Drops below altitude 10° 23:19:29 10° 5° (N) 1,943 7.2 -17.5°
Sets 23:21:42 0° 8° (N) 2,847 8.2 -17.6°
